IK4NOW-13 Weather Reports


time (UTC)temp
C
wind
direction
speed
KPH
gust
KPH
rain 1hr
cm
rain 24hr
cm
rain mn
cm
humidity
%
barometer
mb
20260906080036 28 0.0 0.0 0.00 0.00 0.00 48 1022.2
20260906071532 27 0.0 0.0 0.00 0.00 0.00 45 1021.9
20260906063027 24 0.0 0.0 0.00 0.00 0.00 49 1021.6
20260906054523 23 0.0 0.0 0.00 0.00 0.00 49 1021.2
20260906050019 22 0.0 0.0 0.00 0.00 0.00 49 1020.9
20260906041514 22 0.0 0.0 0.00 0.00 0.00 49 1020.3
20260906033010 23 0.0 0.0 0.00 0.00 0.00 49 1019.9
20260906024505 23 0.0 0.0 0.00 0.00 0.00 48 1019.8
20260906020001 23 0.0 0.0 0.00 0.00 0.00 46 1019.3
20260906011456 23 0.0 0.0 0.00 0.00 0.00 46 1019.1
20260906002952 25 0.0 0.0 0.00 0.00 0.00 45 1019.0
20260905234448 25 0.0 0.0 0.00 0.00 0.00 45 1018.9
20260905225943 26 0.0 0.0 0.00 0.00 0.00 44 1018.8
20260905221439 26 0.0 0.0 0.00 0.00 0.00 43 1018.6
20260905212934 27 0.0 0.0 0.00 0.00 0.00 42 1018.3
20260905204430 28 0.0 0.0 0.00 0.00 0.00 42 1018.0
20260905195925 28 0.0 0.0 0.00 0.00 0.00 42 1017.9
20260905191421 29 0.0 0.0 0.00 0.00 0.00 42 1017.6
20260905182917 30 0.0 0.0 0.00 0.00 0.00 41 1017.1
20260905174412 30 0.0 0.0 0.00 0.00 0.00 40 1016.7
20260905165908 31 0.0 0.0 0.00 0.00 0.00 40 1016.4
20260905161404 32 0.0 0.0 0.00 0.00 0.00 39 1016.1
20260905152859 33 0.0 0.0 0.00 0.00 0.00 39 1016.0
20260905135850 35 0.0 0.0 0.00 0.00 0.00 38 1016.1
20260905131346 36 0.0 0.0 0.00 0.00 0.00 37 1016.3
20260905122841 35 0.0 0.0 0.00 0.00 0.00 37 1016.7
20260905114337 35 0.0 0.0 0.00 0.00 0.00 37 1017.1
20260905105833 33 0.0 0.0 0.00 0.00 0.00 38 1017.4
20260905101328 33 0.0 0.0 0.00 0.00 0.00 40 1017.4
20260905092824 32 0.0 0.0 0.00 0.00 0.00 41 1017.7
20260905084319 31 0.0 0.0 0.00 0.00 0.00 42 1017.5